Time,TemperatureF,DewpointF,PressureIn,WindDirection,WindDirectionDegrees,WindSpeedMPH,WindSpeedGustMPH,Humidity,HourlyPrecipIn,Conditions,Clouds,dailyrainin,SoftwareType,DateUTC
2013-02-22 00:11:00,19.3,17.0,29.90,NNE,18,3.0,9.0,92,0.00,,,0.00,weatherlink.com 1.10,2013-02-22 06:11:00,
2013-02-22 00:26:00,19.3,17.0,29.90,NE,49,5.0,8.0,92,0.00,,,0.00,weatherlink.com 1.10,2013-02-22 06:26:00,
2013-02-22 00:41:00,19.3,17.0,29.91,NNE,17,2.0,9.0,92,0.00,,,0.00,weatherlink.com 1.10,2013-02-22 06:41:00,
2013-02-22 00:56:00,19.3,17.0,29.90,NNE,27,4.0,8.0,92,0.00,,,0.00,weatherlink.com 1.10,2013-02-22 06:56:00,
2013-02-22 01:11:00,19.4,18.0,29.90,NNE,20,2.0,8.0,92,0.00,,,0.00,weatherlink.com 1.10,2013-02-22 07:11:00,
2013-02-22 01:26:00,19.3,17.0,29.90,NNE,20,5.0,9.0,92,0.00,,,0.00,weatherlink.com 1.10,2013-02-22 07:26:00,
2013-02-22 01:41:00,19.2,17.0,29.90,NNE,13,5.0,8.0,92,0.00,,,0.00,weatherlink.com 1.10,2013-02-22 07:41:00,
2013-02-22 01:56:00,19.1,17.0,29.90,NNW,341,3.0,9.0,92,0.00,,,0.00,weatherlink.com 1.10,2013-02-22 07:56:00,
2013-02-22 02:11:00,19.0,17.0,29.90,NNE,30,3.0,9.0,92,0.00,,,0.00,weatherlink.com 1.10,2013-02-22 08:11:00,
2013-02-22 02:27:00,18.8,17.0,29.90,NNW,333,2.0,8.0,92,0.00,,,0.00,weatherlink.com 1.10,2013-02-22 08:27:00,
2013-02-22 02:41:00,18.6,17.0,29.90,NW,325,3.0,7.0,92,0.00,,,0.00,weatherlink.com 1.10,2013-02-22 08:41:00,
2013-02-22 02:56:00,18.4,17.0,29.90,NW,321,2.0,8.0,92,0.00,,,0.00,weatherlink.com 1.10,2013-02-22 08:56:00,
2013-02-22 03:11:00,18.1,16.0,29.90,NW,321,3.0,10.0,92,0.00,,,0.00,weatherlink.com 1.10,2013-02-22 09:11:00,
2013-02-22 03:26:00,18.2,16.0,29.90,NW,309,12.0,12.0,92,0.00,,,0.00,weatherlink.com 1.10,2013-02-22 09:26:00,
2013-02-22 03:42:00,18.4,17.0,29.90,WNW,289,5.0,8.0,92,0.00,,,0.00,weatherlink.com 1.10,2013-02-22 09:42:00,
2013-02-22 03:56:00,18.5,17.0,29.91,NNW,333,3.0,13.0,92,0.00,,,0.00,weatherlink.com 1.10,2013-02-22 09:56:00,
2013-02-22 04:11:00,18.5,17.0,29.91,NNW,327,9.0,14.0,92,0.00,,,0.00,weatherlink.com 1.10,2013-02-22 10:11:00,
2013-02-22 04:26:00,18.5,17.0,29.91,NW,312,5.0,11.0,92,0.00,,,0.00,weatherlink.com 1.10,2013-02-22 10:26:00,
2013-02-22 04:42:00,18.5,17.0,29.91,NNW,347,5.0,13.0,92,0.00,,,0.00,weatherlink.com 1.10,2013-02-22 10:42:00,
2013-02-22 04:57:00,18.3,16.0,29.91,NW,307,7.0,12.0,92,0.00,,,0.00,weatherlink.com 1.10,2013-02-22 10:57:00,
2013-02-22 05:12:00,18.1,16.0,29.91,NNE,14,5.0,14.0,92,0.00,,,0.00,weatherlink.com 1.10,2013-02-22 11:12:00,
2013-02-22 05:27:00,18.0,16.0,29.91,WNW,299,8.0,12.0,92,0.00,,,0.00,weatherlink.com 1.10,2013-02-22 11:27:00,
2013-02-22 05:42:00,17.9,16.0,29.91,WNW,298,8.0,15.0,92,0.00,,,0.00,weatherlink.com 1.10,2013-02-22 11:42:00,
2013-02-22 05:57:00,17.7,16.0,29.92,NW,314,11.0,14.0,92,0.00,,,0.00,weatherlink.com 1.10,2013-02-22 11:57:00,
2013-02-22 06:12:00,17.6,16.0,29.92,NW,304,8.0,16.0,92,0.00,,,0.00,weatherlink.com 1.10,2013-02-22 12:12:00,
2013-02-22 06:27:00,17.4,16.0,29.93,NW,314,10.0,20.0,92,0.00,,,0.00,weatherlink.com 1.10,2013-02-22 12:27:00,
2013-02-22 06:42:00,17.2,15.0,29.93,NNW,327,8.0,13.0,91,0.00,,,0.00,weatherlink.com 1.10,2013-02-22 12:42:00,
2013-02-22 06:57:00,16.8,15.0,29.94,NW,305,6.0,13.0,91,0.00,,,0.00,weatherlink.com 1.10,2013-02-22 12:57:00,
2013-02-22 07:12:00,16.5,14.0,29.94,West,279,10.0,18.0,91,0.00,,,0.00,weatherlink.com 1.10,2013-02-22 13:12:00,
2013-02-22 07:27:00,16.2,14.0,29.95,West,279,8.0,15.0,91,0.00,,,0.00,weatherlink.com 1.10,2013-02-22 13:27:00,
2013-02-22 07:42:00,15.9,14.0,29.95,WNW,298,8.0,15.0,91,0.00,,,0.00,weatherlink.com 1.10,2013-02-22 13:42:00,
2013-02-22 07:57:00,15.8,14.0,29.96,WNW,296,6.0,15.0,91,0.00,,,0.00,weatherlink.com 1.10,2013-02-22 13:57:00,
2013-02-22 08:12:00,15.8,14.0,29.97,WNW,300,12.0,17.0,91,0.00,,,0.00,weatherlink.com 1.10,2013-02-22 14:12:00,
2013-02-22 08:27:00,16.3,14.0,29.98,NW,307,6.0,16.0,91,0.00,,,0.00,weatherlink.com 1.10,2013-02-22 14:27:00,
2013-02-22 08:43:00,16.9,15.0,29.98,WNW,292,6.0,15.0,91,0.00,,,0.00,weatherlink.com 1.10,2013-02-22 14:43:00,
2013-02-22 08:57:00,17.6,16.0,29.98,NW,305,9.0,15.0,91,0.00,,,0.00,weatherlink.com 1.10,2013-02-22 14:57:00,
2013-02-22 09:12:00,18.4,16.0,29.98,NW,319,9.0,17.0,90,0.00,,,0.00,weatherlink.com 1.10,2013-02-22 15:12:00,
2013-02-22 09:28:00,18.3,16.0,29.98,NNW,344,11.0,13.0,90,0.00,,,0.00,weatherlink.com 1.10,2013-02-22 15:28:00,
2013-02-22 09:42:00,17.7,15.0,30.00,WNW,298,6.0,13.0,90,0.00,,,0.00,weatherlink.com 1.10,2013-02-22 15:42:00,
2013-02-22 09:57:00,17.7,15.0,30.00,NNW,328,6.0,13.0,90,0.00,,,0.00,weatherlink.com 1.10,2013-02-22 15:57:00,
2013-02-22 10:12:00,18.5,16.0,30.01,WNW,296,6.0,17.0,89,0.00,,,0.00,weatherlink.com 1.10,2013-02-22 16:12:00,
2013-02-22 10:27:00,18.8,16.0,30.02,WNW,291,3.0,14.0,88,0.00,,,0.00,weatherlink.com 1.10,2013-02-22 16:27:00,
2013-02-22 10:42:00,19.2,17.0,30.02,WNW,288,5.0,10.0,89,0.00,,,0.00,weatherlink.com 1.10,2013-02-22 16:42:00,
2013-02-22 10:57:00,18.7,16.0,30.02,West,273,8.0,11.0,88,0.00,,,0.00,weatherlink.com 1.10,2013-02-22 16:57:00,
2013-02-22 11:13:00,19.3,16.0,30.02,WNW,293,8.0,12.0,88,0.00,,,0.00,weatherlink.com 1.10,2013-02-22 17:13:00,
2013-02-22 11:28:00,19.9,17.0,30.02,WNW,283,7.0,13.0,87,0.00,,,0.00,weatherlink.com 1.10,2013-02-22 17:28:00,
2013-02-22 11:43:00,20.2,17.0,30.02,West,279,6.0,12.0,87,0.00,,,0.00,weatherlink.com 1.10,2013-02-22 17:43:00,
2013-02-22 11:58:00,19.9,17.0,30.03,West,262,7.0,13.0,87,0.00,,,0.00,weatherlink.com 1.10,2013-02-22 17:58:00,
2013-02-22 12:13:00,19.6,16.0,30.04,West,271,10.0,15.0,86,0.00,,,0.00,weatherlink.com 1.10,2013-02-22 18:13:00,
2013-02-22 12:28:00,19.7,17.0,30.04,West,271,7.0,20.0,87,0.00,,,0.00,weatherlink.com 1.10,2013-02-22 18:28:00,
2013-02-22 12:43:00,20.0,17.0,30.03,West,273,11.0,14.0,86,0.00,,,0.00,weatherlink.com 1.10,2013-02-22 18:43:00,
2013-02-22 12:58:00,20.3,17.0,30.03,West,263,6.0,19.0,86,0.01,,,0.01,weatherlink.com 1.10,2013-02-22 18:58:00,
2013-02-22 13:13:00,20.3,17.0,30.04,West,272,11.0,20.0,85,0.01,,,0.01,weatherlink.com 1.10,2013-02-22 19:13:00,
2013-02-22 13:28:00,20.4,16.0,30.04,West,273,13.0,20.0,84,0.01,,,0.01,weatherlink.com 1.10,2013-02-22 19:28:00,
2013-02-22 13:43:00,20.3,16.0,30.04,WNW,286,8.0,20.0,83,0.01,,,0.01,weatherlink.com 1.10,2013-02-22 19:43:00,
2013-02-22 13:58:00,20.9,17.0,30.04,WSW,257,10.0,18.0,83,0.00,,,0.01,weatherlink.com 1.10,2013-02-22 19:58:00,
2013-02-22 14:13:00,21.3,16.0,30.04,West,261,15.0,21.0,81,0.00,,,0.01,weatherlink.com 1.10,2013-02-22 20:13:00,
2013-02-22 14:28:00,21.7,17.0,30.04,West,277,8.0,15.0,81,0.00,,,0.01,weatherlink.com 1.10,2013-02-22 20:28:00,
2013-02-22 14:43:00,22.1,17.0,30.04,West,261,13.0,15.0,82,0.00,,,0.01,weatherlink.com 1.10,2013-02-22 20:43:00,
2013-02-22 14:58:00,21.3,16.0,30.04,WNW,286,8.0,21.0,80,0.00,,,0.01,weatherlink.com 1.10,2013-02-22 20:58:00,
2013-02-22 15:13:00,21.5,16.0,30.04,West,279,11.0,17.0,80,0.00,,,0.01,weatherlink.com 1.10,2013-02-22 21:13:00,
2013-02-22 15:28:00,21.5,16.0,30.04,WNW,284,7.0,19.0,79,0.00,,,0.01,weatherlink.com 1.10,2013-02-22 21:28:00,
2013-02-22 15:43:00,21.8,17.0,30.04,WNW,288,6.0,16.0,80,0.00,,,0.01,weatherlink.com 1.10,2013-02-22 21:43:00,
2013-02-22 15:58:00,21.2,16.0,30.04,NW,304,14.0,18.0,79,0.00,,,0.01,weatherlink.com 1.10,2013-02-22 21:58:00,
2013-02-22 16:13:00,21.4,16.0,30.04,NW,311,11.0,15.0,79,0.00,,,0.01,weatherlink.com 1.10,2013-02-22 22:13:00,
2013-02-22 16:28:00,21.8,16.0,30.04,WNW,301,8.0,16.0,79,0.00,,,0.01,weatherlink.com 1.10,2013-02-22 22:28:00,
2013-02-22 16:43:00,21.6,16.0,30.05,NW,317,4.0,15.0,79,0.00,,,0.01,weatherlink.com 1.10,2013-02-22 22:43:00,
2013-02-22 16:58:00,21.8,17.0,30.05,West,277,3.0,11.0,80,0.00,,,0.01,weatherlink.com 1.10,2013-02-22 22:58:00,
2013-02-22 17:13:00,21.8,16.0,30.05,West,271,8.0,12.0,79,0.00,,,0.01,weatherlink.com 1.10,2013-02-22 23:13:00,
2013-02-22 17:28:00,21.4,16.0,30.06,WSW,246,5.0,13.0,79,0.00,,,0.01,weatherlink.com 1.10,2013-02-22 23:28:00,
2013-02-22 17:43:00,20.6,15.0,30.06,West,271,8.0,10.0,80,0.00,,,0.01,weatherlink.com 1.10,2013-02-22 23:43:00,
2013-02-22 17:58:00,19.8,15.0,30.06,WNW,288,5.0,8.0,80,0.00,,,0.01,weatherlink.com 1.10,2013-02-22 23:58:00,
2013-02-22 18:13:00,19.1,14.0,30.06,West,264,4.0,7.0,81,0.00,,,0.01,weatherlink.com 1.10,2013-02-23 00:13:00,
2013-02-22 18:28:00,18.5,14.0,30.07,WSW,255,4.0,6.0,82,0.00,,,0.01,weatherlink.com 1.10,2013-02-23 00:28:00,
2013-02-22 18:43:00,18.0,14.0,30.07,WSW,256,3.0,7.0,83,0.00,,,0.01,weatherlink.com 1.10,2013-02-23 00:43:00,
2013-02-22 18:59:00,17.9,14.0,30.08,WSW,254,5.0,6.0,83,0.00,,,0.01,weatherlink.com 1.10,2013-02-23 00:59:00,
2013-02-22 19:13:00,17.0,13.0,30.08,WSW,254,3.0,5.0,84,0.00,,,0.01,weatherlink.com 1.10,2013-02-23 01:13:00,
2013-02-22 19:28:00,16.4,12.0,30.08,WSW,253,3.0,4.0,84,0.00,,,0.01,weatherlink.com 1.10,2013-02-23 01:28:00,
2013-02-22 19:43:00,16.0,12.0,30.08,WSW,253,4.0,6.0,85,0.00,,,0.01,weatherlink.com 1.10,2013-02-23 01:43:00,
2013-02-22 19:59:00,15.7,12.0,30.08,WSW,251,4.0,7.0,85,0.00,,,0.01,weatherlink.com 1.10,2013-02-23 01:59:00,
2013-02-22 20:13:00,15.7,12.0,30.08,WSW,251,4.0,6.0,86,0.00,,,0.01,weatherlink.com 1.10,2013-02-23 02:13:00,
2013-02-22 20:28:00,15.8,12.0,30.08,WSW,255,2.0,7.0,86,0.00,,,0.01,weatherlink.com 1.10,2013-02-23 02:28:00,
2013-02-22 20:43:00,15.7,12.0,30.08,WSW,252,3.0,5.0,86,0.00,,,0.01,weatherlink.com 1.10,2013-02-23 02:43:00,
2013-02-22 20:58:00,16.0,13.0,30.08,WSW,252,3.0,6.0,86,0.00,,,0.01,weatherlink.com 1.10,2013-02-23 02:58:00,
2013-02-22 21:13:00,15.4,12.0,30.07,WSW,252,2.0,7.0,86,0.00,,,0.01,weatherlink.com 1.10,2013-02-23 03:13:00,
2013-02-22 21:29:00,15.4,12.0,30.07,West,262,3.0,6.0,86,0.00,,,0.01,weatherlink.com 1.10,2013-02-23 03:29:00,
2013-02-22 21:44:00,15.1,12.0,30.07,WSW,255,4.0,7.0,86,0.00,,,0.01,weatherlink.com 1.10,2013-02-23 03:44:00,
2013-02-22 21:58:00,14.8,11.0,30.07,West,260,9.0,10.0,86,0.00,,,0.01,weatherlink.com 1.10,2013-02-23 03:58:00,
2013-02-22 22:13:00,14.0,11.0,30.06,WSW,257,3.0,7.0,86,0.00,,,0.01,weatherlink.com 1.10,2013-02-23 04:13:00,
2013-02-22 22:28:00,13.9,11.0,30.06,SW,230,6.0,8.0,87,0.00,,,0.01,weatherlink.com 1.10,2013-02-23 04:28:00,
2013-02-22 22:44:00,12.8,10.0,30.06,SW,234,5.0,7.0,87,0.00,,,0.01,weatherlink.com 1.10,2013-02-23 04:44:00,
2013-02-22 22:59:00,12.7,10.0,30.06,WSW,247,4.0,7.0,87,0.00,,,0.01,weatherlink.com 1.10,2013-02-23 04:59:00,
2013-02-22 23:14:00,12.5,9.0,30.06,SW,229,5.0,8.0,87,0.00,,,0.01,weatherlink.com 1.10,2013-02-23 05:14:00,
2013-02-22 23:29:00,12.2,9.0,30.06,SW,229,6.0,9.0,87,0.00,,,0.01,weatherlink.com 1.10,2013-02-23 05:29:00,
2013-02-22 23:44:00,11.8,9.0,30.06,SW,231,4.0,7.0,87,0.00,,,0.01,weatherlink.com 1.10,2013-02-23 05:44:00,
2013-02-22 23:59:00,12.5,10.0,30.06,WSW,249,5.0,7.0,88,0.00,,,0.01,weatherlink.com 1.10,2013-02-23 05:59:00,